N1653F KCHD-P19

Flight info

Callsign N1653F
Flight time 0h -10m
Altitude 2400
Route P19
Aircraft C172/L-SBGRY/LB1

Departure

Time 2026-04-25 15:50
Airport Chandler Municipal Airport (KCHD)

Arrival

Time 2026-04-25 15:40
Airport Stellar Airpark (P19)
Time Latitude Longitude Altitude Speed Heading
2026-04-25 15:40 33.27093 -111.81282 1238 ft 0 kts 139°
2026-04-25 15:45 33.27081 -111.81253 1240 ft 10 kts 73°
2026-04-25 15:45 33.27140 -111.81155 1239 ft 13 kts 47°
2026-04-25 15:45 33.27143 -111.81120 1240 ft 14 kts 110°
2026-04-25 15:46 33.27232 -111.80955 1240 ft 13 kts 90°
2026-04-25 15:46 33.27223 -111.80933 1239 ft 0 kts 134°
2026-04-25 15:46 33.27196 -111.80911 1239 ft 10 kts 145°
2026-04-25 15:46 33.27137 -111.80827 1247 ft 15 kts 68°
2026-04-25 15:47 33.27222 -111.80713 1250 ft 21 kts 49°
2026-04-25 15:47 33.27324 -111.80571 1243 ft 24 kts 50°
2026-04-25 15:47 33.27436 -111.80415 1244 ft 25 kts 48°
2026-04-25 15:47 33.27510 -111.80296 1251 ft 9 kts 102°
2026-04-25 15:48 33.27482 -111.80256 1247 ft 0 kts 139°
2026-04-25 15:48 33.27479 -111.80253 1246 ft 3 kts 138°
2026-04-25 15:49 33.27433 -111.80229 1246 ft 11 kts 206°
2026-04-25 15:49 33.27344 -111.80345 1247 ft 36 kts 229°
2026-04-25 15:49 33.27094 -111.80689 1256 ft 71 kts 227°
2026-04-25 15:49 33.26734 -111.81162 1371 ft 80 kts 231°
2026-04-25 15:50 33.26382 -111.81674 1531 ft 81 kts 234°
2026-04-25 15:50 33.26078 -111.82228 1726 ft 80 kts 256°
2026-04-25 15:50 33.26146 -111.82897 1843 ft 88 kts 305°
2026-04-25 15:50 33.26660 -111.83333 1983 ft 93 kts 330°
2026-04-25 15:51 33.27253 -111.83697 2104 ft 99 kts 332°
2026-04-25 15:51 33.27454 -111.83822 2117 ft 101 kts 331°
2026-04-25 15:51 33.27999 -111.85007 2188 ft 101 kts 280°
2026-04-25 15:51 33.28100 -111.85874 2142 ft 107 kts 277°
2026-04-25 15:52 33.28191 -111.86739 2134 ft 108 kts 284°
2026-04-25 15:52 33.28503 -111.87570 2108 ft 108 kts 299°
2026-04-25 15:52 33.28893 -111.88334 2063 ft 111 kts 302°
2026-04-25 15:52 33.29250 -111.89140 2055 ft 109 kts 294°
2026-04-25 15:53 33.29547 -111.89973 2036 ft 108 kts 293°
2026-04-25 15:53 33.29815 -111.90815 1982 ft 109 kts 289°
2026-04-25 15:53 33.30063 -111.91670 1942 ft 109 kts 289°
2026-04-25 15:53 33.30285 -111.92530 1922 ft 107 kts 287°
2026-04-25 15:54 33.30507 -111.93362 1927 ft 102 kts 299°
2026-04-25 15:54 33.31093 -111.93546 1979 ft 100 kts 32°
2026-04-25 15:54 33.31256 -111.92792 1930 ft 105 kts 117°
2026-04-25 15:54 33.30646 -111.92435 1884 ft 102 kts 181°
2026-04-25 15:55 33.29938 -111.92452 1872 ft 101 kts 185°
2026-04-25 15:55 33.29242 -111.92550 1844 ft 100 kts 193°
2026-04-25 15:55 33.28554 -111.92689 1832 ft 100 kts 192°
2026-04-25 15:55 33.27884 -111.92798 1883 ft 92 kts 188°
2026-04-25 15:56 33.27359 -111.92534 1840 ft 92 kts 106°
2026-04-25 15:56 33.27440 -111.91819 1774 ft 92 kts 48°
2026-04-25 15:56 33.27709 -111.91648 1685 ft 91 kts
2026-04-25 15:56 33.28545 -111.91580 1420 ft 91 kts 357°
2026-04-25 15:57 33.28962 -111.91575 1301 ft 86 kts
2026-04-25 15:57 33.29527 -111.91579 1200 ft 72 kts
2026-04-25 15:57 33.29929 -111.91582 1238 ft 42 kts
2026-04-25 15:57 33.30043 -111.91606 1250 ft 10 kts 279°
2026-04-25 15:58 33.30079 -111.91629 1257 ft 0 kts 359°